Weather History for KPMD - June, 2012

Change the Weather History Date:

Friday, June 8, 2012

  Actual Average Record
Temperature  
Mean Temperature 74 °F 73 °F  
Max Temperature 90 °F 89 °F 107 °F (1973)
Min Temperature 57 °F 57 °F 42 °F (1950)
Degree Days  
Heating Degree Days 0 0  
Month to date heating degree days 5 6  
Since 1 June heating degree days 5 6  
Since 1 July heating degree days 2824 2924  
Cooling Degree Days 9 9  
Month to date cooling degree days 68 65  
Year to date cooling degree days 315 235  
Since 1 June cooling degree days 68 65  
Growing Degree Days 23 (Base 50)    
Moisture  
Dew Point 40 °F    
Average Humidity 33    
Maximum Humidity 53    
Minimum Humidity 13    
Precipitation  
Precipitation 0.00 in 0.00 in 0.00 in (2015)
Month to date precipitation 0.00 0.07  
Year to date precipitation 1.79 5.30  
Since 1 July precipitation 3.72  
Snow  
Snow 0.00 in - - ()
Month to date snowfall 0.0  
Since 1 June snowfall 0.0  
Since 1 July snowfall 0.0  
Snow Depth 0.00 in    
Sea Level Pressure  
Sea Level Pressure 29.78 in    
Wind  
Wind Speed 13 mph (WSW)    
Max Wind Speed 26 mph    
Max Gust Speed 30 mph    
Visibility 10 miles    
Events      
T = Trace of Precipitation, MM = Missing Value Source: NWS Daily Summary

Daily Weather History Graph

Daily Weather History Graph

Search for Another Location

Airport or City:

Trip Planner

Search our weather history database for the weather conditions in past years. The results will help you decide how hot, cold, wet, or windy it might be!

Date:

Astronomy

Jun. 08, 2012 Rise Set
Actual Time 5:38 AM PDT 8:04 PM PDT
Civil Twilight 5:09 AM PDT 8:33 PM PDT
Nautical Twilight 4:33 AM PDT 9:09 PM PDT
Astronomical Twilight 3:53 AM PDT 9:49 PM PDT
Moon 11:40 PM PDT (6/8) 10:15 AM PDT (6/8)
Length of Visible Light 15h 23m
Length of Day
14h 25m
Waning Gibbous, 76% of the Moon is Illuminated
Jun 8
Waning Gibbous
Jun 11
Last Quarter
Jun 19
New
Jun 26
First Quarter
Jul 3
Full

Hourly Weather History & Observations

Time (PDT) Temp. Dew Point Humidity Pressure Visibility Wind Dir Wind Speed Gust Speed Precip Events Conditions
12:53 AM 64.0 °F 36.0 °F 35% 29.82 in 10.0 mi SW 6.9 mph - N/A   Clear
1:53 AM 64.0 °F 35.1 °F 34% 29.81 in 10.0 mi West 5.8 mph - N/A   Clear
2:53 AM 69.1 °F 39.9 °F 35% 29.79 in 10.0 mi WNW 16.1 mph - N/A   Clear
3:53 AM 68.0 °F 41.0 °F 37% 29.79 in 10.0 mi WNW 10.4 mph - N/A   Clear
4:53 AM 60.1 °F 35.1 °F 39% 29.79 in 10.0 mi SSE 3.5 mph - N/A   Clear
5:53 AM 57.9 °F 33.1 °F 39% 29.80 in 10.0 mi SE 4.6 mph - N/A   Clear
6:53 AM 64.9 °F 35.1 °F 33% 29.81 in 10.0 mi Calm Calm - N/A   Clear
7:53 AM 71.1 °F 37.0 °F 29% 29.80 in 10.0 mi Calm Calm - N/A   Clear
8:53 AM 73.9 °F 36.0 °F 25% 29.81 in 10.0 mi Calm Calm - N/A   Clear
9:53 AM 82.9 °F 33.1 °F 17% 29.79 in 10.0 mi WNW 13.8 mph 18.4 mph N/A   Clear
10:53 AM 84.9 °F 28.9 °F 13% 29.79 in 10.0 mi WSW 18.4 mph - N/A   Clear
11:53 AM 87.1 °F 30.0 °F 13% 29.78 in 10.0 mi SW 19.6 mph - N/A   Clear
12:53 PM 89.1 °F 34.0 °F 14% 29.77 in 10.0 mi WSW 18.4 mph 21.9 mph N/A   Clear
1:53 PM 89.1 °F 37.0 °F 16% 29.76 in 10.0 mi WSW 16.1 mph 21.9 mph N/A   Clear
2:53 PM 88.0 °F 43.0 °F 21% 29.75 in 10.0 mi West 19.6 mph 28.8 mph N/A   Clear
3:53 PM 87.1 °F 46.0 °F 24% 29.75 in 10.0 mi West 21.9 mph 29.9 mph N/A   Clear
4:53 PM 84.0 °F 46.9 °F 27% 29.76 in 10.0 mi West 21.9 mph 27.6 mph N/A   Clear
5:53 PM 82.0 °F 48.0 °F 30% 29.76 in 10.0 mi West 20.7 mph - N/A   Clear
6:53 PM 79.0 °F 48.9 °F 35% 29.75 in 10.0 mi West 18.4 mph - N/A   Clear
7:53 PM 75.0 °F 48.0 °F 38% 29.76 in 10.0 mi West 19.6 mph - N/A   Clear
8:53 PM 71.1 °F 50.0 °F 47% 29.77 in 10.0 mi West 18.4 mph - N/A   Clear
9:53 PM 70.0 °F 50.0 °F 49% 29.77 in 10.0 mi SW 15.0 mph - N/A   Clear
10:53 PM 68.0 °F 50.0 °F 52% 29.77 in 10.0 mi SW 12.7 mph - N/A   Clear
11:53 PM 68.0 °F 46.9 °F 47% 29.76 in 10.0 mi SW 13.8 mph - N/A   Clear